Terminal Aerodrome Forecast
Issued by NWS Houston/Galveston, TX

Home | Current Version | Previous Version | Text Only | Print | Product List | Glossary On
Versions: 1 2 3 4 5 6 7 8 9 10 11 12 13 14 15 16 17 18 19 20 21 22 23 24 25 26 27 28 29 30 31 32 33 34 35 36 37 38 39 40 41 42 43 44 45 46 47 48 49 50
000
FTUS44 KHGX 250823 AAA
TAFCLL
TAF AMD
KCLL 250823Z 2508/2606 15008KT P6SM BKN008
      TEMPO 2509/2513 OVC006
     FM251300 16011KT P6SM SCT015 BKN025
     FM251500 16013KT P6SM VCSH BKN025
     FM251700 16013KT P6SM VCTS BKN040CB
      TEMPO 2520/2524 VRB10G30KT TSRA
     FM260200 15009KT P6SM BKN050=

USA.gov is the U.S. government's official web portal to all federal, state and local government web resources and services.